FW1936 Weather Reports


time (UTC)temp
C
wind
direction
speed
KPH
gust
KPH
rain 1hr
cm
rain 24hr
cm
rain mn
cm
humidity
%
barometer
mb
20260505162526 15 8 6.4 16.1 0.00 0.00 0.00 63 1008.4
20260505162027 15 354 4.8 6.4 0.00 0.00 0.00 65 1008.4
20260505161530 15 15 6.4 8.0 0.00 0.00 0.00 65 1008.4
20260505161025 15 15 6.4 8.0 0.00 0.00 0.00 65 1008.4
20260505153026 15 2 4.8 1.6 0.00 0.00 0.00 64 1008.5
20260505152526 15 2 4.8 4.8 0.00 0.00 0.00 64 1008.5
20260505151526 15 17 4.8 6.4 0.00 0.00 0.00 63 1008.6
20260505151026 15 3 4.8 0.0 0.00 0.00 0.00 63 1008.6
20260505150526 15 3 4.8 6.4 0.00 0.00 0.00 62 1008.6
20260505140526 16 37 4.8 4.8 0.00 0.00 0.00 63 1008.8
20260505124530 16 334 4.8 8.0 0.00 0.00 0.00 65 1009.1
20260505124026 16 343 4.8 4.8 0.00 0.00 0.00 65 1009.1
20260505123026 16 8 3.2 4.8 0.00 0.00 0.00 66 1009.0
20260505122526 16 65 3.2 4.8 0.00 0.00 0.00 65 1009.0
20260505121530 16 356 3.2 3.2 0.00 0.00 0.00 64 1009.1
20260505121025 16 356 3.2 4.8 0.00 0.00 0.00 64 1009.1
20260505120526 15 32 3.2 1.6 0.00 0.00 0.00 66 1009.1
20260505120026 15 32 3.2 0.0 0.00 0.00 0.00 67 1009.1
20260505115526 15 59 4.8 3.2 0.00 0.00 0.00 66 1009.1
20260505115026 15 51 3.2 3.2 0.00 0.00 0.00 64 1009.1
20260505114527 15 51 3.2 8.0 0.00 0.00 0.00 64 1009.2
20260505114027 15 51 3.2 6.4 0.00 0.00 0.00 65 1009.2
20260505113026 15 35 4.8 4.8 0.00 0.00 0.00 66 1009.4
20260505112526 15 35 4.8 8.0 0.00 0.00 0.00 66 1009.4
20260505112026 15 50 6.4 4.8 0.00 0.00 0.00 68 1009.4
20260505111527 15 2 4.8 3.2 0.00 0.00 0.00 68 1009.5
20260505111025 15 2 4.8 4.8 0.00 0.00 0.00 69 1009.5
20260505110526 15 2 4.8 4.8 0.00 0.00 0.00 71 1009.5
20260505102025 14 358 3.2 8.0 0.00 0.00 0.00 70 1009.8
20260505100025 14 28 6.4 6.4 0.00 0.00 0.00 72 1009.9
20260505095530 13 28 6.4 3.2 0.00 0.00 0.00 72 1009.9
20260505095025 13 32 4.8 8.0 0.00 0.00 0.00 74 1009.9
20260505094529 13 32 4.8 8.0 0.00 0.00 0.00 75 1009.9
20260505092025 13 25 6.4 3.2 0.00 0.00 0.00 80 1010.0
20260505091525 13 25 6.4 4.8 0.00 0.00 0.00 79 1010.0
20260505091036 13 15 6.4 4.8 0.00 0.00 0.00 80 1010.0
20260505090526 13 15 6.4 3.2 0.00 0.00 0.00 80 1010.0
20260505090032 13 15 3.2 6.4 0.00 0.00 0.00 81 1010.1
20260505085526 13 15 3.2 6.4 0.00 0.00 0.00 82 1010.1
20260505084526 12 13 4.8 3.2 0.00 0.00 0.00 81 1010.1
20260505084025 12 332 4.8 3.2 0.00 0.00 0.00 82 1010.1
20260505083031 12 347 4.8 6.4 0.00 0.00 0.00 83 1010.1
20260505082531 12 347 4.8 4.8 0.00 0.00 0.00 84 1010.1
20260505082025 12 346 4.8 6.4 0.00 0.00 0.00 85 1010.1
20260505081026 12 358 6.4 6.4 0.00 0.00 0.00 85 1010.2
20260505075529 11 11 6.4 6.4 0.00 0.00 0.00 84 1010.1
20260505075025 11 338 3.2 6.4 0.00 0.00 0.00 83 1010.1
20260505074526 11 338 3.2 6.4 0.00 0.00 0.00 82 1010.2
20260505074026 11 331 4.8 4.8 0.00 0.00 0.00 80 1010.2
20260505073525 11 331 4.8 4.8 0.00 0.00 0.00 80 1010.2
20260505073026 11 318 3.2 6.4 0.00 0.00 0.00 79 1010.2
20260505072530 11 318 3.2 3.2 0.00 0.00 0.00 79 1010.2
20260505072025 10 11 3.2 3.2 0.00 0.00 0.00 77 1010.2
20260505071525 10 11 3.2 3.2 0.00 0.00 0.00 77 1010.3
20260505071032 10 320 3.2 3.2 0.00 0.00 0.00 77 1010.3
20260505070026 10 299 3.2 3.2 0.00 0.00 0.00 77 1010.3
20260505065530 10 299 3.2 4.8 0.00 0.00 0.00 77 1010.3
20260505063526 10 300 1.6 1.6 0.00 0.00 0.00 78 1010.2
20260505062525 9 300 1.6 3.2 0.00 0.00 0.00 78 1010.3
20260505062031 9 310 1.6 0.0 0.00 0.00 0.00 78 1010.3
20260505061532 9 310 1.6 4.8 0.00 0.00 0.00 78 1010.5
20260505061025 9 279 0.0 1.6 0.00 0.00 0.00 78 1010.5
20260505060525 9 279 0.0 0.0 0.00 0.00 0.00 78 1010.5
20260505055525 9 269 0.0 0.0 0.00 0.00 0.00 78 1010.4
20260505055026 9 269 0.0 0.0 0.00 0.00 0.00 78 1010.4
20260505054025 8 269 0.0 0.0 0.00 0.00 0.00 79 1010.6
20260505053530 8 269 0.0 0.0 0.00 0.00 0.00 79 1010.6
20260505053030 8 269 0.0 0.0 0.00 0.00 0.00 79 1010.5
20260505052530 8 269 0.0 0.0 0.00 0.00 0.00 79 1010.5
20260505052026 8 269 0.0 0.0 0.00 0.00 0.00 79 1010.5
20260505051025 8 269 0.0 0.0 0.00 0.00 0.00 79 1010.5
20260505050529 8 269 0.0 0.0 0.00 0.00 0.00 79 1010.5
20260505041530 8 339 0.0 3.2 0.00 0.00 0.00 79 1010.6
20260505041025 8 339 0.0 3.2 0.00 0.00 0.00 79 1010.6
20260505040029 8 339 0.0 0.0 0.00 0.00 0.00 79 1010.5
20260505035528 8 339 0.0 0.0 0.00 0.00 0.00 79 1010.5
20260505035025 8 339 0.0 0.0 0.00 0.00 0.00 79 1010.5
20260505034525 8 339 0.0 1.6 0.00 0.00 0.00 79 1010.3
20260505034025 8 339 0.0 0.0 0.00 0.00 0.00 79 1010.3
20260505033529 8 339 0.0 1.6 0.00 0.00 0.00 79 1010.3
20260505032525 8 322 1.6 0.0 0.00 0.00 0.00 79 1010.4
20260505032025 8 98 0.0 3.2 0.00 0.00 0.00 80 1010.4
20260505031526 8 84 0.0 0.0 0.00 0.00 0.00 80 1010.4
20260505031032 8 84 0.0 0.0 0.00 0.00 0.00 80 1010.4
20260505030525 8 84 0.0 0.0 0.00 0.00 0.00 80 1010.4
20260505030031 8 354 0.0 0.0 0.00 0.00 0.00 80 1010.6
20260505025530 8 354 0.0 0.0 0.00 0.00 0.00 81 1010.6
20260505025025 7 1 3.2 0.0 0.00 0.00 0.00 81 1010.6
20260505024525 7 1 3.2 0.0 0.00 0.00 0.00 81 1010.3
20260505024024 7 349 1.6 3.2 0.00 0.00 0.00 82 1010.3
20260505023525 7 349 1.6 6.4 0.00 0.00 0.00 83 1010.3
20260505023024 7 16 0.0 0.0 0.00 0.00 0.00 85 1010.6
20260505022524 7 16 0.0 0.0 0.00 0.00 0.00 86 1010.6
20260505022026 7 45 0.0 0.0 0.00 0.00 0.00 86 1010.6
20260505021529 7 45 0.0 0.0 0.00 0.00 0.00 86 1010.7
20260505021025 7 45 0.0 0.0 0.00 0.00 0.00 86 1010.7
20260505020030 7 45 0.0 0.0 0.00 0.00 0.00 86 1010.9
20260505015526 7 45 0.0 0.0 0.00 0.00 0.00 86 1010.9
20260505015025 7 45 0.0 0.0 0.00 0.00 0.00 86 1010.9
20260505014525 7 45 0.0 0.0 0.00 0.00 0.00 86 1010.9
20260505014025 8 45 0.0 0.0 0.00 0.00 0.00 86 1010.9
20260505013027 8 45 0.0 0.0 0.00 0.00 0.00 86 1011.0
20260505012529 8 45 0.0 0.0 0.00 0.00 0.00 86 1011.0
20260505012025 8 45 0.0 0.0 0.00 0.00 0.00 87 1011.0
20260505011526 8 45 0.0 0.0 0.00 0.00 0.00 87 1010.9
20260505011025 8 45 0.0 0.0 0.00 0.00 0.00 87 1010.9
20260505010525 8 45 0.0 0.0 0.00 0.00 0.00 87 1010.9
20260505010025 8 45 0.0 0.0 0.00 0.00 0.00 87 1010.8
20260505005524 8 45 0.0 0.0 0.00 0.00 0.00 87 1010.8
20260505005025 8 45 0.0 0.0 0.00 0.00 0.00 87 1010.8
20260505004525 8 45 0.0 0.0 0.00 0.00 0.00 87 1011.0
20260505004030 8 45 0.0 0.0 0.00 0.00 0.00 87 1011.0
20260505003525 8 45 0.0 0.0 0.00 0.00 0.00 88 1011.0
20260505003025 8 45 1.6 0.0 0.00 0.00 0.00 88 1011.1
20260505002525 8 45 0.0 0.0 0.00 0.00 0.00 88 1011.1
20260505001529 9 45 0.0 3.2 0.00 0.00 0.00 87 1011.3
20260505001025 9 45 0.0 0.0 0.00 0.00 0.00 87 1011.3
20260505000525 10 45 0.0 0.0 0.00 0.00 0.00 87 1011.3
20260505000025 10 45 0.0 0.0 0.00 0.00 0.00 87 1011.5
20260504235025 10 45 0.0 1.6 0.00 0.00 0.00 87 1011.5
20260504234525 10 21 0.0 0.0 0.00 0.00 0.00 87 1011.5
20260504234025 10 21 0.0 0.0 0.00 0.00 0.00 87 1011.5
20260504233025 10 19 1.6 0.0 0.00 0.00 0.00 87 1011.5
20260504232025 11 35 0.0 3.2 0.00 0.00 0.00 86 1011.5
20260504231525 11 35 0.0 0.0 0.00 0.00 0.00 86 1011.5
20260504231030 11 35 1.6 0.0 0.00 0.00 0.00 86 1011.5
20260504230525 11 35 1.6 3.2 0.00 0.00 0.00 86 1011.5
20260504230034 11 31 3.2 3.2 0.00 0.00 0.00 85 1011.6
20260504225524 11 31 3.2 3.2 0.00 0.00 0.20 85 1011.6
20260504225025 11 35 3.2 4.8 0.00 0.00 0.20 85 1011.6
20260504224525 11 35 3.2 4.8 0.00 0.00 0.20 85 1011.6
20260504224025 11 52 3.2 3.2 0.00 0.00 0.20 86 1011.6
20260504223529 11 52 3.2 3.2 0.00 0.00 0.20 86 1011.6
20260504223025 11 50 3.2 3.2 0.00 0.00 0.20 86 1011.7
20260504222525 11 50 3.2 4.8 0.00 0.00 0.20 86 1011.7
20260504222025 11 49 3.2 4.8 0.00 0.00 0.20 86 1011.7
20260504221025 11 31 3.2 3.2 0.00 0.00 0.20 86 1011.8
20260504220525 11 31 3.2 4.8 0.00 0.00 0.20 86 1011.8
20260504220030 11 37 3.2 8.0 0.00 0.00 0.20 86 1011.8
20260504215525 11 37 3.2 3.2 0.00 0.00 0.20 85 1011.8
20260504215024 11 48 3.2 3.2 0.00 0.00 0.20 85 1011.8
20260504214524 11 48 3.2 8.0 0.00 0.00 0.20 85 1011.8
20260504214024 11 35 3.2 3.2 0.00 0.00 0.20 85 1011.8
20260504213024 12 30 3.2 3.2 0.00 0.00 0.20 85 1011.9
20260504212525 12 30 3.2 0.0 0.00 0.00 0.20 85 1011.9
20260504211525 12 38 4.8 4.8 0.00 0.00 0.20 85 1011.8
20260504211025 12 28 3.2 4.8 0.00 0.00 0.20 85 1011.8
20260504210524 12 28 3.2 9.7 0.00 0.00 0.20 85 1011.8
20260504210025 12 33 4.8 3.2 0.00 0.00 0.20 85 1011.8
20260504205525 12 37 3.2 3.2 0.00 0.00 0.20 84 1011.8
20260504205025 12 37 3.2 4.8 0.00 0.00 0.20 84 1011.8
20260504204024 12 38 6.4 1.6 0.00 0.00 0.20 84 1011.9
20260504202525 12 30 4.8 8.0 0.00 0.00 0.20 83 1011.8
20260504201525 12 27 4.8 6.4 0.00 0.00 0.20 84 1011.7
20260504201024 12 29 3.2 3.2 0.00 0.00 0.20 84 1011.7
20260504200525 12 29 3.2 6.4 0.00 0.00 0.20 84 1011.7
20260504195528 12 33 3.2 0.0 0.00 0.00 0.20 83 1011.6
20260504195024 13 32 3.2 4.8 0.00 0.00 0.20 83 1011.6
20260504194524 13 32 3.2 3.2 0.00 0.00 0.20 83 1011.5
20260504194025 13 42 1.6 8.0 0.00 0.00 0.20 83 1011.5
20260504193025 13 55 3.2 4.8 0.00 0.00 0.20 82 1011.4
20260504192529 13 55 3.2 3.2 0.00 0.00 0.20 82 1011.4
20260504192025 13 58 3.2 3.2 0.00 0.00 0.20 82 1011.4
20260504191529 13 58 3.2 0.0 0.00 0.00 0.20 82 1011.3
20260504191031 13 45 4.8 6.4 0.00 0.00 0.20 81 1011.3
20260504190526 13 39 3.2 0.0 0.00 0.00 0.20 81 1011.3
20260504190025 13 39 3.2 11.3 0.00 0.00 0.20 81 1011.2
20260504185025 13 35 3.2 4.8 0.00 0.00 0.20 81 1011.2
20260504184525 13 35 3.2 8.0 0.00 0.00 0.20 81 1011.1
20260504184030 13 42 4.8 6.4 0.00 0.00 0.20 80 1011.1
20260504183529 13 42 4.8 3.2 0.00 0.00 0.20 80 1011.1
20260504182525 13 41 6.4 3.2 0.00 0.00 0.20 80 1011.0
20260504182025 13 52 6.4 9.7 0.00 0.00 0.20 80 1011.0
20260504181525 13 52 6.4 3.2 0.00 0.00 0.20 79 1010.9
20260504181028 13 34 3.2 4.8 0.00 0.00 0.20 79 1010.9
20260504180026 13 31 4.8 1.6 0.00 0.00 0.20 80 1010.9
20260504175525 13 31 4.8 4.8 0.00 0.00 0.20 80 1010.9
20260504175024 13 41 6.4 8.0 0.00 0.00 0.20 79 1010.9
20260504174525 14 41 6.4 4.8 0.00 0.00 0.20 79 1010.7
20260504174024 14 33 6.4 9.7 0.00 0.00 0.20 78 1010.7
20260504173031 13 30 6.4 6.4 0.00 0.00 0.20 79 1010.9
20260504172529 14 30 6.4 8.0 0.00 0.00 0.20 78 1010.9
20260504172024 14 36 8.0 9.7 0.00 0.00 0.20 78 1010.9
20260504171524 14 36 8.0 6.4 0.00 0.00 0.20 78 1010.9
20260504171025 14 38 6.4 8.0 0.00 0.00 0.20 77 1010.9
20260504170524 14 34 6.4 11.3 0.00 0.00 0.20 79 1010.9